Muskegon, MI

11:22 AM EST on December 10, 2019 (GMT -0500)
Muskegon County

Weather History for KMKG - November, 2019

Change the Weather History Date:

Monday, November 11, 2019

  Actual Average Record
Temperature  
Mean Temperature 28 °F 42 °F  
Max Temperature 32 °F 49 °F 70 °F (1911)
Min Temperature 23 °F 35 °F 17 °F (1987)
Degree Days  
Heating Degree Days 37 23  
Month to date heating degree days 307 235  
Since 1 July heating degree days 813 858  
Cooling Degree Days 0 0  
Month to date cooling degree days 0 0  
Year to date cooling degree days 640 566  
Moisture  
Dew Point 21 °F    
Average Humidity 67    
Maximum Humidity 85    
Minimum Humidity 49    
Precipitation  
Precipitation 0.07 in 0.11 in 0.80 in (1903)
Month to date precipitation 1.27 1.25  
Year to date precipitation 42.09 28.83  
Snow  
Snow 1.30 in 0.10 in 6.30 in (1995)
Month to date snowfall 8.0 0.9  
Since 1 July snowfall 8.0 1.1  
Since 1 September snowfall 8.0 1.1  
Snow Depth 0.00 in    
Sea Level Pressure  
Sea Level Pressure 30.23 in    
Wind  
Wind Speed 11 mph (NNE)    
Max Wind Speed 24 mph    
Max Gust Speed 37 mph    
Visibility 6 miles    
Events Snow    
T = Trace of Precipitation, MM = Missing Value Source: NWS Daily Summary

Daily Weather History Graph

Daily Weather History Graph

Search for Another Location

Airport or City:

Astronomy

Nov. 11, 2019 Rise Set
Actual Time 7:32 AM EST 5:25 PM EST
Civil Twilight 7:02 AM EST 5:55 PM EST
Nautical Twilight 6:27 AM EST 6:29 PM EST
Astronomical Twilight 5:54 AM EST 7:02 PM EST
Moon 5:22 PM EST (11/11) 6:19 AM EST (11/11)
Length of Visible Light 10h 53m
Length of Day
9h 52m
Waxing Gibbous, 99% of the Moon is Illuminated
Nov 11
Waxing Gibbous
Nov 12
Full
Nov 19
Last Quarter
Nov 26
New
Dec 4
First Quarter

Hourly Weather History & Observations

Time (EST) Temp. Windchill Dew Point Humidity Pressure Visibility Wind Dir Wind Speed Gust Speed Precip Events Conditions
12:35 AM 32.0 °F 23.0 °F 24.1 °F 73% 30.16 in 10.0 mi NE 11.5 mph - N/A   Mostly Cloudy
12:55 AM 32.0 °F 24.2 °F 23.0 °F 69% 30.19 in 10.0 mi NNE 9.2 mph 18.4 mph N/A   Overcast
1:02 AM 32.0 °F 26.4 °F 24.1 °F 73% 30.17 in 10.0 mi NNE 5.8 mph - N/A   Overcast
1:55 AM 32.0 °F 23.6 °F 23.0 °F 69% 30.20 in 10.0 mi NNE 10.4 mph - N/A   Overcast
2:55 AM 30.9 °F 22.2 °F 21.0 °F 67% 30.20 in 10.0 mi North 10.4 mph 19.6 mph N/A   Overcast
3:55 AM 30.9 °F 22.8 °F 19.9 °F 64% 30.21 in 10.0 mi NNE 9.2 mph - N/A   Overcast
4:55 AM 30.0 °F 20.5 °F 19.9 °F 66% 30.22 in 10.0 mi North 11.5 mph - N/A   Overcast
5:50 AM 28.4 °F 19.7 °F 21.2 °F 74% 30.22 in 3.0 mi NNE 9.2 mph - N/A Snow Light Snow
5:55 AM 28.9 °F 20.4 °F 21.9 °F 75% 30.24 in 2.5 mi NNE 9.2 mph - 0.00 in Snow Light Snow
6:06 AM 28.0 °F 20.0 °F 21.9 °F 78% 30.21 in 1.8 mi NNE 8.1 mph - 0.00 in Snow Light Snow
6:17 AM 28.0 °F 20.8 °F 23.0 °F 81% 30.21 in 2.0 mi North 6.9 mph - 0.00 in Snow Light Snow
6:31 AM 28.0 °F 19.3 °F 23.0 °F 81% 30.22 in 1.8 mi North 9.2 mph - 0.00 in Snow Light Snow
6:55 AM 28.0 °F 19.3 °F 23.0 °F 81% 30.25 in 1.8 mi NE 9.2 mph 17.3 mph 0.01 in Snow Light Snow
7:35 AM 28.0 °F 21.7 °F 24.1 °F 85% 30.21 in 1.5 mi NE 5.8 mph - 0.02 in Snow Light Snow
7:50 AM 28.4 °F 19.7 °F 24.8 °F 86% 30.22 in 1.2 mi ENE 9.2 mph - N/A Snow Light Snow
7:55 AM 28.0 °F 20.8 °F 24.1 °F 85% 30.25 in 1.0 mi ENE 6.9 mph - 0.02 in Snow Light Snow
8:11 AM 28.0 °F 19.3 °F 21.9 °F 78% 30.22 in 2.0 mi NE 9.2 mph - 0.01 in Snow Light Snow
8:22 AM 28.0 °F 18.6 °F 21.9 °F 78% 30.23 in 1.8 mi NE 10.4 mph - 0.01 in Snow Light Snow
8:42 AM 28.0 °F 20.0 °F 21.9 °F 78% 30.24 in 1.8 mi NNE 8.1 mph - 0.01 in Snow Light Snow
8:55 AM 28.0 °F 21.7 °F 23.0 °F 81% 30.26 in 1.2 mi NNE 5.8 mph - 0.01 in Snow Light Snow
9:21 AM 28.0 °F 20.8 °F 23.0 °F 81% 30.24 in 2.0 mi NNE 6.9 mph - 0.00 in Snow Light Snow
9:31 AM 28.0 °F 20.0 °F 23.0 °F 81% 30.24 in 7.0 mi North 8.1 mph - 0.01 in Snow Light Snow
9:55 AM 28.0 °F 18.1 °F 21.0 °F 75% 30.27 in 4.0 mi NNE 11.5 mph - 0.01 in Snow Light Snow
10:55 AM 28.0 °F 19.3 °F 21.0 °F 75% 30.26 in 4.0 mi NE 9.2 mph - 0.00 in Snow Light Snow
11:05 AM 28.0 °F 20.8 °F 21.9 °F 78% 30.24 in 5.0 mi NNE 6.9 mph - 0.00 in Snow Light Snow
11:38 AM 28.9 °F 21.1 °F 21.0 °F 72% 30.23 in 10.0 mi NNE 8.1 mph - 0.00 in   Overcast
11:55 AM 28.9 °F 20.4 °F 21.0 °F 72% 30.25 in 10.0 mi NE 9.2 mph - 0.00 in   Overcast
12:55 PM 30.0 °F 22.4 °F 19.9 °F 66% 30.22 in 10.0 mi NE 8.1 mph - N/A   Mostly Cloudy
1:55 PM 30.9 °F 23.5 °F 19.0 °F 61% 30.21 in 10.0 mi North 8.1 mph - N/A   Overcast
2:55 PM 30.9 °F 22.2 °F 16.0 °F 54% 30.20 in 10.0 mi North 10.4 mph - N/A   Mostly Cloudy
3:55 PM 30.9 °F 21.2 °F 17.1 °F 57% 30.21 in 10.0 mi NNW 12.7 mph - N/A   Overcast
4:55 PM 30.0 °F 21.7 °F 14.0 °F 51% 30.22 in 10.0 mi North 9.2 mph - N/A   Overcast
5:55 PM 28.9 °F 18.6 °F 15.1 °F 56% 30.23 in 10.0 mi NNW 12.7 mph - N/A   Overcast
6:55 PM 27.0 °F 15.2 °F 17.1 °F 66% 30.26 in 10.0 mi NNW 15.0 mph - N/A   Overcast
7:55 PM 26.1 °F 16.2 °F 19.9 °F 78% 30.27 in 5.0 mi NNW 10.4 mph - 0.00 in Snow Light Snow
8:13 PM 26.1 °F 15.0 °F 21.0 °F 81% 30.24 in 1.8 mi NNW 12.7 mph - 0.00 in Snow Light Snow
8:55 PM 25.0 °F 13.1 °F 19.0 °F 78% 30.27 in 1.8 mi NNW 13.8 mph 26.5 mph 0.00 in Snow Light Snow
9:06 PM 25.0 °F 12.2 °F 19.0 °F 78% 30.24 in 2.5 mi NNW 16.1 mph 26.5 mph 0.00 in Snow Light Snow
9:24 PM 25.0 °F 12.2 °F 19.0 °F 78% 30.24 in 3.0 mi North 16.1 mph - 0.00 in Snow Light Snow
9:55 PM 25.0 °F 13.1 °F 18.0 °F 75% 30.27 in 7.0 mi NNW 13.8 mph 21.9 mph 0.00 in Snow Light Snow
10:33 PM 25.0 °F 12.2 °F 18.0 °F 75% 30.24 in 3.0 mi NNW 16.1 mph 23.0 mph 0.00 in Snow Light Snow
10:40 PM 24.1 °F 11.0 °F 18.0 °F 77% 30.24 in 2.5 mi NNW 16.1 mph 25.3 mph 0.00 in Snow Light Snow
10:55 PM 24.1 °F 11.5 °F 18.0 °F 77% 30.27 in 3.0 mi NNW 15.0 mph 28.8 mph 0.00 in Snow Light Snow
11:06 PM 24.1 °F 9.8 °F 18.0 °F 77% 30.24 in 2.0 mi NNW 19.6 mph 27.6 mph 0.00 in Snow Light Snow
11:55 PM 24.1 °F 9.4 °F 17.1 °F 75% 30.27 in 3.0 mi NNW 20.7 mph 36.8 mph 0.00 in Snow Light Snow